Regional Weather Roundup
Issued by NWS Mt. Holly, NJ

Home | Current Version | Previous Version | Text Only | Print | Product List | Glossary On
Versions: 1 2 3 4 5 6 7 8 9 10 11 12 13 14 15 16 17 18 19 20 21 22 23 24 25 26 27 28 29 30 31 32 33 34 35 36 37 38 39 40 41 42 43 44 45 46 47 48 49 50
000
ASUS41 KPHI 110810
RWRPHI

REGIONAL WEATHER ROUNDUP
NATIONAL WEATHER SERVICE MOUNT HOLLY NJ
400 AM EDT FRI JUL 11 2014

NOTE:  "FAIR" INDICATES FEW OR NO CLOUDS BELOW 12,000 FEET WITH NO
SIGNIFICANT WEATHER AND/OR OBSTRUCTIONS TO VISIBILITY.

 * = STATION DOES NOT REPORT PRECIPITATION (E.G. RAIN, SNOW, ETC.)
        OR FOG.

NJZ015>026-110900-
SOUTHERN NEW JERSEY

CITY           SKY/WX    TMP DP  RH WIND       PRES   REMARKS
POMONA         FOG       66  65  96 CALM      30.12R VSB 1/2
RIO GRANDE*    CLOUDY    70  66  88 E3        30.12S
MILLVILLE      CLOUDY    68  67  96 CALM      30.12R
WRIGHTSTOWN    CLOUDY    67  64  91 N3        30.11S
MOUNT HOLLY    CLOUDY    69  64  84 CALM      30.12S
TRENTON        CLOUDY    68  63  84 N5        30.12S

$$
NJZ001>014-110900-
NORTHERN NEW JERSEY

CITY           SKY/WX    TMP DP  RH WIND       PRES   REMARKS
SUSSEX         MOCLDY    65  59  81 VRB3      30.17R
ANDOVER*         N/A     64  63  96 CALM      30.17S
MORRISTOWN       N/A     68  64  88 CALM      30.15S FOG
NEWARK         CLOUDY    73  64  73 N6        30.13S
TETERBORO      CLOUDY    74  64  71 N3        30.13R
CALDWELL       CLOUDY    67  65  93 CALM      30.16R
SOMERVILLE     MOCLDY    66  63  90 NW5       30.13R
ALLAIRE*       CLOUDY    68  63  83 N3        30.13S
TOMS RIVER*    CLOUDY    66  66 100 CALM      30.13S

$$
PAZ043-044-047-054-055-060>062-066>071-110900-
EASTERN PENNSYLVANIA

CITY           SKY/WX    TMP DP  RH WIND       PRES   REMARKS
PHILADELPHIA   CLOUDY    72  62  71 N3        30.13S
NORTH PHILA    CLOUDY    71  62  73 N5        30.14S
BLUE BELL      MOCLDY    68  64  88 CALM      30.14R
DOYLESTOWN     MOCLDY    65  64  97 N3        30.14R
QUAKERTOWN*    PTCLDY    66  64  94 NE3       30.16S
POTTSTOWN      MOCLDY    66  64  93 NE3       30.16S
LANCASTER      CLEAR     64  63  96 NW5       30.15R FOG
COATESVILLE    PTCLDY    64  64 100 N5        30.16S FOG
READING        CLEAR     68  64  87 N5        30.14S
ALLENTOWN      CLEAR     66  63  90 NE3       30.16R
MOUNT POCONO   MOCLDY    63  55  75 NE6       30.22R
HAZLETON       MOCLDY    59  55  88 CALM      30.23S
WILKES BARRE   PTCLDY    61  55  81 CALM      30.20R

$$
DEZALL-MDZ008-012-015-019-020-110900-
DELAWARE AND EASTERN MARYLAND

CITY           SKY/WX    TMP DP  RH WIND       PRES   REMARKS
WILMINGTON     MOCLDY    69  68  96 NW7       30.14R
DOVER          CLOUDY    68  68 100 NW5       30.10R
GEORGETOWN     CLOUDY    71  69  93 E3        30.11F
EASTON         MOCLDY    71  71 100 CALM      30.15S FOG
PATUXENT       PTCLDY    70  68  93 CALM      30.11S
OCEAN CITY     CLOUDY    70  68  93 W3        30.10S FOG
WALLOPS ISLAND MOCLDY    70  69  97 CALM      30.11S
CAMBRIDGE      MOCLDY    72  68  88 CALM      30.10F
SALISBURY      CLOUDY    72  68  87 CALM      30.11F FOG

$$
PAZ001-021-NYZ056-072-MDZ011-DCZ001-110900-
OTHER NEARBY LOCATIONS

CITY           SKY/WX    TMP DP  RH WIND       PRES   REMARKS
HARRISBURG     PTCLDY    67  64  90 NW7       30.15R
STATE COLLEGE  FOG       58  58  99 CALM      30.20S VSB 1/4
WILLIAMSPORT   PTCLDY    62  57  83 CALM      30.18R
BINGHAMTON     CLEAR     57  49  74 E3        30.23R
NEW YORK CITY  CLOUDY    74  62  66 NE3       30.16S
BALTIMORE      PTCLDY    66  63  90 CALM      30.12S
WASHINGTON DC  CLOUDY    71  65  81 CALM      30.14R

$$


USA.gov is the U.S. government's official web portal to all federal, state and local government web resources and services.